[[{"header":{"parameterUnit":"m.s-1","parameterCategory":1,"la1":30.2991,"la2":30.254,"lo1":-89.0895,"lo2":-89.0444,"dy":0.0017,"dx":0.0017,"nx":28,"ny":28,"refTime":"2023-07-27T03:00:00:Z","depth":0,"parameterNumber":2,"parameterNumberName":"U-component_of_WINDS"},"data":[0,0,0,0,0,0,0,0,0,0,0,0,0,0,0,0,0,0,0,0,0,0,0,0,0,0,0,0,0,0,0,0,0,0,0,0,0,0,0,0,0,0,0,0,0,0,0,0,0,0,0,0,0,0,0,0,0,0,-1.2602,-1.2601,0,-1.2559,-1.2558,-1.2558,-1.2547,-1.2547,-1.2547,-1.2547,-1.2498,-1.2496,-1.2495,0,0,0,0,0,0,0,0,0,0,0,0,0,-1.267,-1.2669,-1.2602,-1.2601,-1.2601,-1.2559,-1.2558,-1.2558,-1.2547,-1.2547,-1.2547,-1.2548,-1.2498,-1.2496,-1.2495,0,0,0,0,0,0,0,0,0,0,0,0,0,-1.2635,-1.2669,-1.2602,-1.259,-1.2589,-1.2559,-1.2558,-1.2558,-1.2546,-1.2547,-1.2547,-1.2548,-1.2499,-1.2497,-1.2494,-1.2471,0,0,-1.2487,-1.2486,0,0,0,0,0,0,0,0,-1.2637,-1.2632,-1.2592,-1.2591,-1.2589,-1.2559,-1.2564,-1.2528,-1.2546,-1.2562,-1.2547,-1.2548,-1.2517,-1.2513,-1.2504,-1.2469,-1.2467,-1.2487,-1.2485,-1.2484,-1.2484,0,0,0,0,0,0,0,-1.2639,-1.2634,-1.2585,-1.2592,-1.259,-1.2586,-1.2581,-1.2557,-1.2538,-1.2561,-1.256,-1.2556,-1.2516,-1.2507,-1.2503,-1.2466,-1.2487,-1.2485,-1.2483,-1.2482,-1.2411,-1.2411,0,0,0,0,0,0,-1.2645,-1.2636,-1.2586,-1.2583,-1.2615,-1.2584,-1.2579,-1.2568,-1.2538,-1.2534,-1.2555,-1.2555,-1.2511,-1.2506,-1.2501,-1.2473,-1.2484,-1.2482,-1.2481,-1.2412,-1.2411,-1.2411,0,0,0,0,0,0,-1.2646,-1.264,-1.2588,-1.261,-1.2603,-1.2583,-1.257,-1.2567,-1.2557,-1.2534,-1.253,-1.2549,-1.2511,-1.2505,-1.248,-1.2471,-1.2481,-1.2479,-1.2412,-1.2411,-1.2411,-1.2416,0,0,0,0,0,0,-1.2648,-1.2641,-1.2632,-1.261,-1.2602,-1.2568,-1.257,-1.2566,-1.2554,-1.2553,-1.2527,-1.2523,-1.2511,-1.2483,-1.2477,-1.2468,-1.2477,-1.2413,-1.2412,-1.2411,-1.2416,-1.2416,-1.2415,0,0,0,0,0,-1.2651,-1.2634,-1.2632,-1.2626,-1.2591,-1.2567,-1.2562,-1.255,-1.2553,-1.2544,-1.253,-1.2524,-1.2474,-1.2481,-1.2474,-1.2464,-1.2413,-1.2412,-1.2411,-1.2417,-1.2416,-1.2415,0,0,0,0,0,0,-1.2654,-1.2631,-1.2628,-1.2604,-1.2588,-1.2566,-1.2554,-1.2549,-1.253,-1.253,-1.2515,-1.2509,-1.2485,-1.2472,-1.248,-1.2441,-1.2443,-1.2441,-1.245,-1.2449,-1.2448,-1.2451,-1.2475,0,0,0,0,0,-1.2652,-1.2637,-1.2617,-1.2597,-1.259,-1.2573,-1.2562,-1.2555,-1.2536,-1.2529,-1.2512,-1.2494,-1.2474,-1.2461,-1.2441,-1.2415,-1.2409,-1.2405,-1.2404,-1.2404,-1.2401,-1.2387,-1.2385,-1.2407,-1.2407,-1.2407,0,0,-1.2648,-1.2633,-1.2624,-1.2598,-1.2584,-1.2567,-1.2567,-1.2549,-1.2535,-1.2525,-1.2501,-1.2489,-1.2467,-1.2442,-1.243,-1.243,-1.2394,-1.2402,-1.2402,-1.24,-1.2386,-1.2384,-1.2382,-1.2406,-1.2406,-1.2407,0,0,-1.2631,-1.2619,-1.2602,-1.2589,-1.257,-1.256,-1.2556,-1.2534,-1.2526,-1.2503,-1.2495,-1.2479,-1.2445,-1.243,-1.2418,-1.2398,-1.2392,-1.2392,-1.2387,-1.2374,-1.2372,-1.2371,-1.2364,-1.2361,-1.239,-1.239,-1.239,0,-1.2627,-1.2602,-1.2593,-1.2576,-1.2564,-1.2558,-1.254,-1.2528,-1.2502,-1.2494,-1.2496,-1.2454,-1.2439,-1.241,-1.2406,-1.2397,-1.2391,-1.2394,-1.2374,-1.2372,-1.237,-1.2363,-1.2361,-1.239,-1.239,-1.239,-1.239,0,-1.2599,-1.2582,-1.257,-1.2549,-1.2536,-1.2519,-1.2506,-1.2494,-1.2489,-1.2478,-1.2454,-1.2436,-1.2413,-1.2406,-1.2399,-1.2377,-1.2378,-1.2377,-1.2379,-1.2369,-1.2362,-1.2359,-1.2391,-1.2391,-1.2391,-1.2391,0,0,-1.258,-1.2556,-1.2552,-1.2542,-1.2522,-1.2508,-1.2491,-1.2471,-1.2461,-1.2444,-1.2429,-1.2402,-1.2401,-1.2388,-1.2379,-1.2368,-1.2354,-1.2368,-1.2367,-1.2366,-1.2329,-1.233,-1.2327,-1.2351,-1.235,-1.235,-1.2331,0,-1.256,-1.253,-1.2522,-1.2496,-1.2481,-1.2476,-1.246,-1.2446,-1.2436,-1.242,-1.2409,-1.239,-1.2391,-1.2383,-1.2372,-1.2358,-1.2346,-1.236,-1.2335,-1.2334,-1.234,-1.2323,-1.2323,-1.2306,-1.2328,-1.2328,-1.2328,0,-1.2532,-1.2517,-1.2491,-1.2474,-1.2467,-1.2454,-1.2436,-1.2422,-1.2405,-1.2399,-1.2386,-1.2379,-1.236,-1.2365,-1.2338,-1.2347,-1.2337,-1.2329,-1.2328,-1.2324,-1.2329,-1.2318,-1.23,-1.2297,-1.2323,-1.2324,-1.2324,0,-1.252,-1.2494,-1.2475,-1.2468,-1.2448,-1.2439,-1.243,-1.2414,-1.2403,-1.2387,-1.238,-1.2361,-1.2351,-1.2336,-1.2325,-1.2329,-1.2299,-1.2302,-1.2292,-1.2293,-1.2285,-1.2285,-1.2264,-1.228,-1.228,-1.228,-1.228,0,-1.2498,-1.2482,-1.247,-1.2458,-1.244,-1.2432,-1.2413,-1.2404,-1.2391,-1.2376,-1.2371,-1.2357,-1.2343,-1.2327,-1.2318,-1.2298,-1.2293,-1.2287,-1.2284,-1.2287,-1.2287,-1.2278,-1.2279,-1.2279,-1.2279,-1.228,-1.228,0,-1.2481,-1.2473,-1.2452,-1.2436,-1.2432,-1.2419,-1.2406,-1.2393,-1.2385,-1.2367,-1.2362,-1.2348,-1.233,-1.2318,-1.2293,-1.2287,-1.2265,-1.2263,-1.2271,-1.2269,-1.226,-1.2261,-1.2231,-1.2227,-1.2247,-1.2247,-1.2247,0,-1.2466,-1.2454,-1.2439,-1.243,-1.2422,-1.2407,-1.2397,-1.2389,-1.2378,-1.236,-1.235,-1.2333,-1.2317,-1.2288,-1.2275,-1.2257,-1.2254,-1.2245,-1.2251,-1.2254,-1.2253,-1.2253,-1.2252,-1.2243,-1.2243,-1.2243,-1.2243,0,-1.2442,-1.2439,-1.2426,-1.2412,-1.24,-1.2388,-1.2376,-1.2368,-1.2358,-1.2346,-1.2329,-1.2318,-1.2295,-1.2277,-1.2258,-1.2248,-1.2243,-1.2242,-1.2238,-1.224,-1.2245,-1.2242,-1.2267,-1.2242,-1.2242,-1.2242,-1.2242,-1.2242,-1.2425,-1.2414,-1.2403,-1.2388,-1.2379,-1.2368,-1.2357,-1.2348,-1.2334,-1.2316,-1.2313,-1.2294,-1.228,-1.2255,-1.2244,-1.2229,-1.223,-1.2225,-1.2224,-1.2222,-1.2222,-1.2249,-1.2226,-1.2226,-1.2226,-1.2226,-1.2226,0,-1.2399,-1.2392,-1.238,-1.2364,-1.2353,-1.2353,-1.234,-1.233,-1.2315,-1.2303,-1.229,-1.227,-1.2253,-1.224,-1.2223,-1.2214,-1.2211,-1.2209,-1.2209,-1.2207,-1.2222,-1.2227,-1.2212,-1.2212,-1.2212,-1.2212,-1.2212,-1.2212,-1.2385,-1.2367,-1.2364,-1.2342,-1.2334,-1.2318,-1.2311,-1.2301,-1.2292,-1.2271,-1.2258,-1.2251,-1.2238,-1.2221,-1.2205,-1.2202,-1.2195,-1.2194,-1.2189,-1.2204,-1.2205,-1.2207,-1.2211,-1.2192,-1.2192,-1.2175,-1.2175,-1.2175]},{"header":{"parameterUnit":"m.s-1","parameterCategory":1,"la1":30.2991,"la2":30.254,"lo1":-89.0895,"lo2":-89.0444,"dy":0.0017,"dx":0.0017,"nx":28,"ny":28,"refTime":"2023-07-27T03:00:00:Z","depth":0,"parameterNumber":3,"parameterNumberName":"V-component_of_WINDS"},"data":[0,0,0,0,0,0,0,0,0,0,0,0,0,0,0,0,0,0,0,0,0,0,0,0,0,0,0,0,0,0,0,0,0,0,0,0,0,0,0,0,0,0,0,0,0,0,0,0,0,0,0,0,0,0,0,0,0,0,2.2342,2.2343,0,2.2388,2.2388,2.2389,2.2458,2.2459,2.246,2.2461,2.2505,2.2505,2.2505,0,0,0,0,0,0,0,0,0,0,0,0,0,2.2313,2.2313,2.2342,2.2343,2.2344,2.2388,2.2388,2.2389,2.2458,2.2459,2.2461,2.2462,2.2505,2.2505,2.2505,0,0,0,0,0,0,0,0,0,0,0,0,0,2.2338,2.2313,2.2342,2.2383,2.2387,2.2388,2.2388,2.2389,2.2457,2.2459,2.2461,2.2463,2.2505,2.2505,2.2505,2.2469,0,0,2.2506,2.2506,0,0,0,0,0,0,0,0,2.2337,2.2339,2.2377,2.238,2.2385,2.2419,2.2394,2.2416,2.2457,2.2431,2.2461,2.2464,2.2475,2.2478,2.2482,2.2471,2.2473,2.2506,2.2506,2.2506,2.2506,0,0,0,0,0,0,0,2.2335,2.2338,2.236,2.2377,2.2382,2.2398,2.2404,2.2399,2.2442,2.2433,2.2438,2.2443,2.2478,2.2482,2.2484,2.2473,2.2506,2.2506,2.2506,2.2506,2.2433,2.2431,0,0,0,0,0,0,2.2328,2.2336,2.2359,2.2362,2.2365,2.2397,2.2404,2.2406,2.2442,2.2449,2.2441,2.2446,2.2481,2.2484,2.2485,2.2443,2.2506,2.2506,2.2506,2.2435,2.2433,2.243,0,0,0,0,0,0,2.2327,2.2329,2.2357,2.235,2.2355,2.2396,2.2398,2.2406,2.241,2.2448,2.2456,2.2438,2.2482,2.2485,2.2472,2.2446,2.2506,2.2506,2.2437,2.2434,2.2432,2.2359,0,0,0,0,0,0,2.2325,2.2328,2.2315,2.2349,2.2355,2.2343,2.2397,2.2406,2.2411,2.2417,2.2447,2.2454,2.2484,2.2472,2.2472,2.2447,2.2506,2.244,2.2436,2.2432,2.2364,2.2354,2.2346,0,0,0,0,0,2.2324,2.2293,2.2314,2.2316,2.234,2.2342,2.2345,2.2381,2.2408,2.2395,2.2419,2.2453,2.2449,2.247,2.2471,2.2445,2.2442,2.2437,2.2433,2.2368,2.2356,2.2346,0,0,0,0,0,0,2.2253,2.2298,2.2322,2.2301,2.2317,2.2353,2.2338,2.2368,2.2376,2.2381,2.2426,2.2432,2.2413,2.2428,2.2451,2.2411,2.245,2.2446,2.2401,2.239,2.2381,2.2376,2.2506,0,0,0,0,0,2.2235,2.2234,2.2273,2.2251,2.2258,2.2296,2.2298,2.2325,2.2343,2.235,2.2374,2.2389,2.2392,2.2392,2.2397,2.2368,2.2374,2.2351,2.2342,2.2334,2.2329,2.2313,2.2302,2.2416,2.2416,2.2416,0,0,2.2198,2.2222,2.2219,2.2237,2.2253,2.2249,2.2301,2.2296,2.2293,2.2349,2.2338,2.2356,2.2376,2.2354,2.2346,2.2367,2.2299,2.2328,2.2322,2.2321,2.2307,2.2296,2.2287,2.2413,2.2414,2.2414,0,0,2.2127,2.2147,2.2129,2.2144,2.2167,2.2193,2.2189,2.2221,2.2235,2.2225,2.2266,2.2264,2.2268,2.228,2.2287,2.2221,2.2252,2.2222,2.2173,2.2157,2.2148,2.214,2.2114,2.2105,2.2217,2.2217,2.2217,0,2.2077,2.2074,2.2116,2.2108,2.2114,2.2166,2.2148,2.216,2.2183,2.2186,2.2209,2.2214,2.2232,2.2213,2.2197,2.2202,2.2197,2.2217,2.2146,2.2139,2.2132,2.2108,2.2098,2.2213,2.2213,2.2214,2.2214,0,2.2011,2.2008,2.1991,2.2013,2.2018,2.2004,2.2043,2.2043,2.207,2.2093,2.2081,2.2104,2.2113,2.2112,2.2138,2.2096,2.2108,2.2138,2.2178,2.2116,2.2094,2.2086,2.2207,2.2209,2.221,2.2211,0,0,2.1895,2.194,2.1933,2.1943,2.1973,2.1971,2.196,2.197,2.1968,2.1983,2.1973,2.1975,2.2003,2.2011,2.2039,2.2025,2.197,2.2057,2.2058,2.2038,2.1923,2.1898,2.1887,2.1991,2.199,2.1989,2.1921,0,2.1828,2.1812,2.1849,2.1823,2.182,2.187,2.186,2.1877,2.1899,2.1899,2.1923,2.1923,2.1961,2.1966,2.1955,2.1979,2.1947,2.1985,2.1981,2.198,2.1971,2.1876,2.185,2.1784,2.1913,2.1911,2.191,0,2.1747,2.1758,2.1732,2.1763,2.1763,2.1753,2.1765,2.1765,2.1785,2.1802,2.181,2.1844,2.1834,2.1875,2.1861,2.1886,2.1887,2.1899,2.1897,2.1896,2.1939,2.1869,2.1765,2.1753,2.1898,2.1899,2.19,0,2.1662,2.167,2.1655,2.1663,2.1699,2.1691,2.1705,2.1727,2.1731,2.1741,2.1743,2.1752,2.1756,2.1762,2.1797,2.1823,2.1778,2.1822,2.179,2.1789,2.1776,2.1776,2.1667,2.1781,2.1781,2.1781,2.1782,0,2.1582,2.1563,2.1617,2.1607,2.1588,2.1631,2.161,2.163,2.1649,2.1644,2.1688,2.1682,2.1729,2.1727,2.1755,2.1738,2.174,2.1752,2.1759,2.1747,2.1745,2.1746,2.175,2.1779,2.1779,2.178,2.178,0,2.1482,2.1518,2.1504,2.154,2.1549,2.1532,2.1562,2.1555,2.158,2.1572,2.1573,2.1612,2.1612,2.1648,2.1656,2.1675,2.1646,2.1662,2.1638,2.1643,2.1608,2.1609,2.1493,2.148,2.1605,2.1604,2.1603,0,2.1427,2.1413,2.1448,2.1448,2.146,2.146,2.1463,2.1506,2.1508,2.153,2.1519,2.1523,2.1529,2.1527,2.1556,2.1562,2.1578,2.1537,2.1578,2.1566,2.1574,2.1573,2.1571,2.1526,2.1525,2.1524,2.1523,0,2.1324,2.1343,2.1347,2.1357,2.136,2.137,2.1383,2.138,2.1427,2.1426,2.1428,2.1432,2.1441,2.1444,2.1456,2.147,2.1503,2.151,2.1502,2.1488,2.1473,2.1478,2.1611,2.1511,2.1513,2.1513,2.1514,2.1514,2.1243,2.1233,2.1256,2.1259,2.1273,2.1284,2.1278,2.1303,2.1305,2.1315,2.1341,2.1337,2.1358,2.1377,2.1388,2.1386,2.1407,2.1396,2.1393,2.1389,2.1381,2.1476,2.1389,2.1389,2.1389,2.139,2.139,0,2.1141,2.1158,2.1161,2.1177,2.1179,2.1212,2.1228,2.1227,2.1224,2.124,2.1245,2.1246,2.125,2.1279,2.1286,2.1278,2.1293,2.1278,2.1277,2.128,2.1364,2.1368,2.1265,2.1265,2.1266,2.1266,2.1266,2.1266,2.1088,2.1072,2.1093,2.1085,2.1102,2.11,2.1106,2.1116,2.1129,2.1128,2.1131,2.1151,2.1172,2.1181,2.1185,2.1194,2.1193,2.1172,2.1185,2.1262,2.1274,2.1286,2.129,2.1172,2.1172,2.1102,2.1101,2.11]}]]